Location: Newark
(45.6833°N, 12.6333°E)
Time: 04:33:20
(UTC+00:00)

ISS - Visible Passes

Search period start: 26 February 2021 00:00
Search period end: 08 March 2021 00:00
Orbit: 417 x 422 km, 51.6° (Epoch: 26 February)

Date Brightness Start Highest point End Pass type
(mag) Time Alt. Az. Time Alt. Az. Time Alt. Az.
26 Feb -0.6 03:04:45 15° ENE 03:04:45 15° ENE 03:05:30 10° ENE visible
26 Feb -3.2 04:37:43 27° WNW 04:39:08 44° NNW 04:42:23 10° NE visible
27 Feb -3.1 03:52:10 50° NNE 03:52:10 50° NNE 03:54:57 10° ENE visible
28 Feb -0.8 03:06:33 17° ENE 03:06:33 17° ENE 03:07:30 10° ENE visible
28 Feb -2.5 04:39:31 19° WNW 04:41:14 31° N 04:44:17 10° NE visible
01 Mar -2.6 03:53:52 35° N 03:53:52 35° N 03:56:46 10° NE visible
02 Mar -1.0 03:08:11 19° NE 03:08:11 19° NE 03:09:17 10° NE visible
02 Mar -2.3 04:41:08 15° NW 04:43:22 28° N 04:46:21 10° ENE visible
03 Mar -2.4 03:55:25 28° NNW 03:55:43 28° N 03:58:42 10° ENE visible
04 Mar -1.2 03:09:42 20° NE 03:09:42 20° NE 03:11:07 10° NE visible
04 Mar -2.4 04:42:40 12° NW 04:45:27 33° NNE 04:48:33 10° ENE visible
05 Mar -2.3 03:56:57 26° NNW 03:57:48 29° N 04:00:48 10° ENE visible
06 Mar -1.4 03:11:15 23° NE 03:11:15 23° NE 03:13:05 10° ENE visible
06 Mar -3.1 04:44:12 11° NW 04:47:23 51° NNE 04:50:41 10° E visible
07 Mar -2.7 03:58:32 28° NNW 03:59:45 40° NNE 04:02:58 10° E visible
